Home   Weather   Laval   Past weeks

Flag for Canada Past Weather in Laval, Quebec, Canada — Yesterday and Last 2 Weeks

Now
57 °F

Low clouds.


Feels Like: 56 °F
Forecast: N/A
Wind: 7 mph from Northeast

Location: Montreal / Mirabel

Current Time: Apr 26, 2017 at 5:41:33 pm

Latest Report: Apr 26, 2017 at 5:00 pm


Visibility: 15 mi

Pressure: 29.83 "Hg

Humidity: 88%

Dew Point: 54 °F

Location of LavalLocation

Past Weather in Laval — Graph

°F

Laval Temperature Yesterday

Maximum temperature yesterday: 55 °F (at 2:00 pm)
Minimum temperature yesterday: 34 °F (at 5:00 am)
Average temperature yesterday: 45 °F

High & Low Weather Summary for the Past Weeks

 TemperatureHumidityPressure
High66 °F (Apr 15, 3:00 pm)100% (Apr 11, 4:00 pm)30.50 "Hg (Apr 11, 4:00 pm)
Low28 °F (Apr 14, 6:00 am)21% (Apr 14, 4:00 pm)29.59 "Hg (Apr 16, 4:22 pm)
Average46 °F74%30.09 "Hg
* Reported Apr 11 4:00 pm — Apr 26 4:00 pm, Laval, Weather by CustomWeather, © 2017

Note: Actual official high and low records may vary slightly from our data, if they occured in-between our weather recording intervals... More about our weather records

Advertising

Laval Weather History for the Previous 24 Hours

Scroll right to see more
 ConditionsComfort  
Time TempWeatherWind HumidityBarometerVisibility
4:00 pm
Wed, Apr 26
55 °FLow clouds.7 mph94%29.85 "Hg12 mi
3:00 pm55 °FLow clouds.9 mph88%29.88 "Hg10 mi
2:00 pm54 °FLow clouds.8 mph94%29.89 "Hg8 mi
1:00 pm52 °FFog.7 mph94%29.90 "Hg6 mi
12:47 pm52 °FFog.9 mph94%29.90 "Hg6 mi
12:00 pm50 °FLight rain. Fog.10 mph100%29.92 "Hg2 mi
11:00 am50 °FLight rain. Fog.7 mph94%29.93 "Hg5 mi
10:00 am48 °FLight rain. Fog.7 mph100%29.94 "Hg3 mi
9:00 am46 °FLight rain. Fog.7 mph100%29.95 "Hg2 mi
8:00 am46 °FLight rain. Fog.7 mph100%29.95 "Hg1 mi
7:00 am46 °FLight rain. Fog.5 mph100%29.96 "Hg1 mi
6:19 am46 °FLight rain. Fog.8 mph100%29.95 "Hg1 mi
5:51 am46 °FFog.7 mph100%29.96 "Hg1 mi
5:00 am46 °FFog.6 mph100%29.97 "Hg2 mi
4:00 am46 °FFog.6 mph100%29.98 "Hg2 mi
3:00 am46 °FFog.10 mph100%29.99 "Hg5 mi
2:00 am46 °FFog.6 mph100%30.01 "Hg6 mi
1:00 am46 °FFog.8 mph100%30.04 "Hg5 mi
12:00 am48 °FLight rain. Fog.8 mph100%30.06 "Hg2 mi
11:00 pm
Tue, Apr 25
46 °FLight rain. Fog.7 mph100%30.08 "Hg2 mi
10:00 pm46 °FLight rain. Fog.6 mph100%30.10 "Hg1 mi
9:00 pm46 °FLight rain. Fog.9 mph100%30.11 "Hg2 mi
8:00 pm48 °FLight rain. Fog.9 mph100%30.12 "Hg4 mi
7:30 pm48 °FLight rain. Fog.9 mph100%30.13 "Hg5 mi
7:00 pm48 °FLight rain. Mostly cloudy.7 mph100%30.14 "Hg15 mi
6:00 pm50 °FLight rain. Mostly cloudy.6 mph88%30.15 "Hg15 mi
5:00 pm52 °FLight rain. Overcast.9 mph72%30.16 "Hg25 mi
Weather by CustomWeather, © 2017

See weather overviewHow to use our weather pages